Location: Congrier
(47.8099°N, 1.1170°W)
Time: 12:38:11
(UTC+00:00)

Cosmos 2278 Rocket - Pass Details

Date: 28 January 2023
Orbit: 841 x 845 km, 71.0° (Epoch: 21 March)

Event Time Altitude Azimuth Distance (km) Brightness Sun altitude
Rises 19:38:54 0° 337° (NNW) 3,417 5.7 -26.9°
Reaches altitude 10° 19:42:16 10° 357° (N) 2,478 4.7 -27.5°
Enters shadow 19:43:28 14° 8° (N) 2,233 4.3 -27.7°
